📊 Raw Sensor Data
Showing records 46876 to 46900 of 85,078 total
| ID | Distance (ft) | Battery V | Battery A | Int Temp (°F) | Int Humid (%) | Ext Temp (°F) | Solar V | RSSI | SNR | Time Stamp |
|---|---|---|---|---|---|---|---|---|---|---|
| 38215 | -- | 3.86 | -5 | 45 | 43 | 48 | 0.10 | -84 | 8 | 04/19/2025 01:00 AM |
| 38214 | 15.3 | 3.92 | -5 | 46 | 43 | 45 | 0.00 | -84 | 7 | 04/19/2025 12:45 AM |
| 38213 | 15.3 | 3.87 | -5 | 48 | 42 | 49 | 0.00 | -84 | 7 | 04/19/2025 12:30 AM |
| 38212 | 15.2 | 3.87 | -5 | 49 | 42 | 52 | 0.00 | -84 | 9 | 04/19/2025 12:15 AM |
| 38211 | 15.2 | 3.92 | -5 | 50 | 42 | 52 | 0.00 | -82 | 8 | 04/19/2025 12:00 AM |
| 38210 | 15.2 | 3.87 | -5 | 50 | 43 | 52 | 0.00 | -82 | 8 | 04/18/2025 11:45 PM |
| 38209 | 15.2 | 3.87 | -5 | 51 | 42 | 52 | 0.00 | -82 | 8 | 04/18/2025 11:30 PM |
| 38208 | 15.2 | 3.87 | -5 | 51 | 43 | 53 | 0.00 | -82 | 8 | 04/18/2025 11:15 PM |
| 38207 | 15.2 | 3.92 | -5 | 52 | 43 | 53 | 0.00 | -85 | 8 | 04/18/2025 11:00 PM |
| 38206 | -- | 3.87 | -5 | 52 | 43 | 53 | 0.00 | -84 | 8 | 04/18/2025 10:45 PM |
| 38205 | -- | 3.92 | -5 | 53 | 43 | 54 | 0.10 | -85 | 8 | 04/18/2025 10:30 PM |
| 38204 | -- | 3.93 | -5 | 53 | 43 | 55 | 0.00 | -85 | 8 | 04/18/2025 10:15 PM |
| 38203 | 15.1 | 3.87 | -5 | 54 | 44 | 55 | 0.00 | -82 | 7 | 04/18/2025 10:00 PM |
| 38202 | -- | 3.87 | -5 | 54 | 44 | 55 | 0.00 | -85 | 8 | 04/18/2025 09:45 PM |
| 38201 | -- | 3.87 | -5 | 56 | 45 | 57 | 0.00 | -82 | 8 | 04/18/2025 09:31 PM |
| 38200 | -- | 3.87 | -5 | 57 | 45 | 57 | 0.00 | -84 | 7 | 04/18/2025 09:15 PM |
| 38199 | -- | 3.88 | -5 | 57 | 46 | 58 | 0.00 | -83 | 8 | 04/18/2025 09:00 PM |
| 38198 | -- | 3.88 | -5 | 58 | 47 | 59 | 0.10 | -86 | 6 | 04/18/2025 08:45 PM |
| 38197 | -- | 3.88 | -5 | 60 | 48 | 60 | 0.00 | -86 | 6 | 04/18/2025 08:30 PM |
| 38196 | -- | 3.88 | -5 | 62 | 49 | 61 | 0.10 | -85 | 7 | 04/18/2025 08:15 PM |
| 38195 | -- | 3.88 | -5 | 64 | 50 | 62 | 1.00 | -87 | 7 | 04/18/2025 08:00 PM |
| 38194 | -- | 3.87 | -15 | 68 | 50 | 65 | 1.90 | -84 | 8 | 04/18/2025 07:45 PM |
| 38193 | -- | 3.89 | 0 | 74 | 48 | 67 | 4.50 | -85 | 7 | 04/18/2025 07:30 PM |
| 38192 | -- | 3.95 | 5 | 77 | 46 | 71 | 4.50 | -86 | 8 | 04/18/2025 07:16 PM |
| 38191 | -- | 3.97 | 6 | 80 | 45 | 73 | 4.60 | -86 | 7 | 04/18/2025 07:00 PM |